This is the latest recevied weather packets stored in our database for station/object W1REE. If no packets are shown the sender has not sent any weather packets the latest 10 day(s).
| Time | Temp. | Humidity | Pressure | Rain* | Wind** | Luminosity | Snow |
|---|---|---|---|---|---|---|---|
| 1778015048 | 3.89° C | 96% | 1013.4 hPa | 0 mm | - | 123 W/m² | - |
| 1778014745 | 3.89° C | 95% | 1013.6 hPa | 0 mm | - | 89 W/m² | - |
| 1778014443 | 3.89° C | 96% | 1013.7 hPa | 0 mm | - | 148 W/m² | - |
| 1778014139 | 3.89° C | 95% | 1013.7 hPa | 0 mm | - | 150 W/m² | - |
| 1778013837 | 3.89° C | 96% | 1013.7 hPa | 0 mm | - | 150 W/m² | - |
| 1778013534 | 3.33° C | 95% | 1013.6 hPa | 1.78 mm | - | 154 W/m² | - |
| 1778013231 | 3.89° C | 95% | 1013.6 hPa | 1.78 mm | - | 207 W/m² | - |
| 1778012927 | 3.89° C | 96% | 1013.9 hPa | 0 mm | - | 134 W/m² | - |
| 1778012623 | 3.89° C | 96% | 1013.7 hPa | 0 mm | - | 206 W/m² | - |
| 1778012320 | 3.33° C | 95% | 1014.1 hPa | 0 mm | - | 185 W/m² | - |
| 1778012018 | 3.33° C | 95% | 1014.1 hPa | 1.27 mm | - | 99 W/m² | - |
| 1778011716 | 3.89° C | 95% | 1014.2 hPa | 1.27 mm | - | 119 W/m² | - |
| 1778011412 | 3.89° C | 95% | 1014 hPa | 0 mm | - | 138 W/m² | - |
| 1778011108 | 3.89° C | 95% | 1014.2 hPa | 0 mm | - | 92 W/m² | - |
| 1778010805 | 3.89° C | 95% | 1014.2 hPa | 1.78 mm | - | 149 W/m² | - |
| 1778010502 | 3.89° C | 95% | 1014.4 hPa | 1.78 mm | - | 200 W/m² | - |
| 1778010200 | 3.89° C | 95% | 1014.5 hPa | 0 mm | - | 176 W/m² | - |
| 1778009894 | 3.89° C | 95% | 1014.4 hPa | 0 mm | - | 238 W/m² | - |
| 1778009593 | 3.89° C | 95% | 1014.5 hPa | 0 mm | - | 186 W/m² | - |
| 1778009291 | 3.89° C | 95% | 1014.4 hPa | 1.27 mm | - | 183 W/m² | - |
| 1778008989 | 3.89° C | 95% | 1014.5 hPa | 1.27 mm | - | 179 W/m² | - |
| 1778008686 | 3.89° C | 95% | 1014.4 hPa | 0 mm | - | 166 W/m² | - |
| 1778008384 | 3.89° C | 95% | 1014.2 hPa | 0 mm | - | 187 W/m² | - |
| 1778008080 | 3.89° C | 95% | 1014.4 hPa | 0 mm | - | 220 W/m² | - |
| 1778007776 | 3.89° C | 95% | 1014.5 hPa | 0 mm | - | 169 W/m² | - |
* Rain latest hour (hover to see other rain measurements)
** Current wind speed in m/s (hover to see current wind gust speed)